Location: Aalen
(48.8330°N, 10.1000°E)
Time: 18:21:57
(UTC+02:00)

CAS-6 - Pass Details

Date: 04 April 2023
Orbit: 610 x 632 km, 97.9° (Epoch: 04 June)

Event Time Altitude Azimuth Distance (km) Brightness Sun altitude
Exits shadow 22:53:33 32° 32° (NNE) 1,077 ? -26.4°
Drops below altitude 10° 22:56:26 10° 0° (N) 2,013 ? -26.7°
Sets 22:58:44 0° 353° (N) 2,929 ? -27.0°
